Location: The Saddle
(36.8333°N, 80.3417°W)
Time: 06:32:02
(UTC-05:00)

Vanguard 3 - Pass Details

Date: 12 February 2026
Orbit: 507 x 3205 km, 33.3° (Epoch: 5 March)

Event Time Altitude Azimuth Distance (km) Brightness Sun altitude
Rises 20:50:57 0° 267° (W) 3,131 11.1 -34.9°
Reaches altitude 10° 20:53:41 10° 262° (W) 1,981 9.8 -35.5°
Enters shadow 20:54:37 15° 258° (WSW) 1,598 9.3 -35.6°
